This is the latest recevied weather packets stored in our database for station/object HASTNG-WX. If no packets are shown the sender has not sent any weather packets the latest 10 day(s).
| Time | Temp. | Humidity | Pressure | Rain* | Wind** | Luminosity | Snow |
|---|---|---|---|---|---|---|---|
| 1777977931 | 10.56° C | 57% | 971.8 hPa | 0 mm | - | - | - |
| 1777977050 | 10.56° C | 57% | 971.9 hPa | 0 mm | - | - | - |
| 1777976131 | 10.56° C | 57% | 971.9 hPa | 0 mm | - | - | - |
| 1777975264 | 10.56° C | 57% | 971.9 hPa | 0 mm | - | - | - |
| 1777974331 | 11.11° C | 68% | 972 hPa | 0 mm | - | - | - |
| 1777973454 | 11.11° C | 71% | 971.8 hPa | 0 mm | - | - | - |
| 1777972531 | 11.11° C | 71% | 971.8 hPa | 0 mm | - | - | - |
| 1777971667 | 11.11° C | 71% | 971.8 hPa | 0 mm | - | - | - |
| 1777970730 | 11.67° C | 74% | 972.1 hPa | 0 mm | - | - | - |
| 1777969850 | 11.67° C | 80% | 971.4 hPa | 0 mm | - | - | - |
| 1777968931 | 12.22° C | 80% | 971.4 hPa | 0 mm | - | - | - |
| 1777968060 | 12.22° C | 73% | 971.7 hPa | 0 mm | - | - | - |
| 1777967132 | 12.78° C | 75% | 971 hPa | 0 mm | - | - | - |
| 1777966252 | 12.78° C | 75% | 971 hPa | 0 mm | - | - | - |
| 1777965332 | 13.33° C | 75% | 971 hPa | 0 mm | - | - | - |
| 1777964462 | 13.89° C | 75% | 971 hPa | 0 mm | - | - | - |
| 1777963531 | 13.89° C | 77% | 971.8 hPa | 0 mm | - | - | - |
| 1777962648 | 13.89° C | 76% | 971 hPa | 0 mm | - | - | - |
| 1777961732 | 14.44° C | 76% | 971 hPa | 0 mm | - | - | - |
| 1777960868 | 14.44° C | 76% | 971 hPa | 0 mm | - | - | - |
| 1777959932 | 15° C | 73% | 972 hPa | 0 mm | - | - | - |
| 1777959055 | 15° C | 61% | 971 hPa | 0 mm | - | - | - |
| 1777958131 | 16.11° C | 61% | 971.1 hPa | 0 mm | - | - | - |
| 1777957259 | 16.67° C | 61% | 971.1 hPa | 0 mm | - | - | - |
| 1777956331 | 16.11° C | 57% | 970.6 hPa | 0 mm | - | - | - |
* Rain latest hour (hover to see other rain measurements)
** Current wind speed in m/s (hover to see current wind gust speed)